• Join FlightAware (Why Join?)
  • Login
  • US Flag 
08:04PM EDT


 

Airport Tracker/Info


-or-


 

Live Flight TrackerFlight Track Log ✈ ASH3770 ✈ 16-May-2013 ✈ KORD - KBDL

Flight Track Log - Related Links

Times and Time Zones

All times are in EDT time to prevent confusion due to time zone crossing. See the ASH3770 flight status page for this flight to view local times or setup timezone preferences in your user account.

Time Position Orientation Groundspeed Altitude Reporting Facility
EDT Latitude Longitude Course Direction KTS MPH feet Rate Location/Type
10:17PM 41.9833 -87.8333 77° East 174 200 2,400  Level Chicago TRACON
10:18PM 41.9906 -87.7036 86° East 231 266 5,000 1,140 Climbing Chicago Center
10:19PM 41.9950 -87.6022 87° East 264 304 5,600 1,320 Climbing Chicago Center
10:20PM 42.0058 -87.4939 82° East 289 333 7,800 2,340 Climbing Chicago Center
10:21PM 42.0317 -87.3919 71° East 289 333 10,500 2,580 Climbing Chicago Center
10:22PM 42.0876 -87.1244 77° East  Level FlightAware Approximate
10:22PM 42.0575 -87.2833 72° East 304 350 13,100  Level Chicago Center
10:23PM 42.0869 -87.1664 71° East 327 376 14,500 1,500 Climbing Chicago Center
10:24PM 42.1156 -87.0342 74° East 365 420 16,200 1,740 Climbing Chicago Center
10:25PM 42.1183 -86.8861 89° East 388 447 18,100 1,800 Climbing Chicago Center
10:26PM 42.1253 -86.7094 87° East 397 457 19,900 1,560 Climbing Chicago Center
10:27PM 42.1297 -86.5689 88° East 415 478 21,300 1,260 Climbing Chicago Center
10:28PM 42.1356 -86.4067 87° East 430 495 22,500 1,260 Climbing Chicago Center
10:29PM 42.1406 -86.2400 88° East 443 510 24,000 1,320 Climbing Chicago Center
10:30PM 42.1450 -86.0706 88° East 450 518 25,300 1,260 Climbing Chicago Center
10:32PM 42.1425 -85.8786 91° East 457 526 26,600 1,080 Climbing Chicago Center
10:33PM 42.1406 -85.7031 91° East 470 541 27,600 960 Climbing Chicago Center
10:34PM 42.1394 -85.5261 90° East 474 545 28,600 1,020 Climbing Chicago Center
10:35PM 42.1375 -85.3469 91° East 481 554 29,700 1,200 Climbing Chicago Center
10:35PM 42.1408 -85.2856 86° East 482 555 30,200 1,200 Climbing Cleveland Center
10:36PM 42.1375 -85.1117 91° East 495 570 31,300 1,200 Climbing Cleveland Center
10:37PM 42.1361 -84.9322 91° East 484 557 32,600 1,020 Climbing Cleveland Center
10:38PM 42.1319 -84.7583 92° East 478 550 33,400 960 Climbing Cleveland Center
10:39PM 42.1281 -84.5817 92° East 473 544 34,600 900 Climbing Cleveland Center
10:40PM 42.1336 -84.4139 87° East 462 532 35,200 660 Climbing Cleveland Center
10:41PM 42.1503 -84.2217 83° East 457 526 36,000 780 Climbing Cleveland Center
10:42PM 42.1681 -84.0517 82° East 457 526 36,800 480 Climbing Cleveland Center
10:43PM 42.1856 -83.8817 82° East 463 533 37,000 60 Climbing Cleveland Center
10:44PM 42.2050 -83.7061 81° East 463 533 37,000  Level Cleveland Center
10:45PM 42.2244 -83.5247 82° East 470 541 37,000  Level Cleveland Center
10:46PM 42.2311 -83.3425 87° East 485 558 37,000  Level Cleveland Center
10:47PM 42.2292 -83.1519 91° East 491 565 37,000  Level Cleveland Center
10:48PM 42.2311 -82.9697 89° East 496 571 37,000  Level Cleveland Center
10:49PM 42.2328 -82.7872 89° East 496 571 37,000  Level Cleveland Center
10:50PM 42.2319 -82.6050 90° East 496 571 37,000  Level Cleveland Center
10:51PM 42.2328 -82.4200 90° East 491 565 37,000  Level Cleveland Center
10:52PM 42.2336 -82.2350 90° East 491 565 37,000  Level Cleveland Center
10:53PM 42.2336 -82.0750 90° East 491 565 37,000  Level Cleveland Center
10:54PM 42.2339 -81.8872 90° East 491 565 37,000  Level Cleveland Center
10:55PM 42.2339 -81.6992 90° East 491 565 37,000  Level Cleveland Center
10:56PM 42.2333 -81.5197 90° East 491 565 37,000  Level Cleveland Center
10:57PM 42.2306 -81.3347 91° East 496 571 37,000  Level Cleveland Center
10:58PM 42.2275 -81.1300 91° East 496 571 37,000  Level Cleveland Center
10:59PM 42.2261 -80.9447 91° East 496 571 37,000  Level Cleveland Center
11:00PM 42.2244 -80.7597 91° East 491 565 37,000  Level Cleveland Center
11:01PM 42.2206 -80.5747 92° East 496 571 37,000  Level Cleveland Center
11:02PM 42.2183 -80.3897 91° East 496 571 37,000  Level Cleveland Center
11:03PM 42.2136 -80.2019 92° East 496 571 37,000  Level Cleveland Center
11:04PM 42.2275 -80.0194 84° East 490 564 37,000  Level Cleveland Center
11:05PM 42.2453 -79.8400 82° East 490 564 37,000  Level Cleveland Center
11:06PM 42.2647 -79.6572 82° East 490 564 37,000  Level Cleveland Center
11:07PM 42.2819 -79.4692 83° East 490 564 37,000  Level Cleveland Center
11:08PM 42.2986 -79.2892 83° East 490 564 37,000  Level Cleveland Center
11:09PM 42.3156 -79.1175 82° East 495 570 37,000  Level Cleveland Center
11:10PM 42.3317 -78.9317 83° East 495 570 37,000  Level Cleveland Center
11:11PM 42.3494 -78.7261 83° East 500 575 37,000  Level Cleveland Center
11:12PM 42.3650 -78.5431 83° East 500 575 37,000  Level Cleveland Center
11:13PM 42.3803 -78.3542 84° East 500 575 37,000  Level Cleveland Center
11:14PM 42.3975 -78.1650 83° East 500 575 37,000  Level Cleveland Center
11:15PM 42.4119 -77.9761 84° East 500 575 37,000  Level Cleveland Center
11:16PM 42.4264 -77.7928 84° East 500 575 37,000  Level Cleveland Center
11:17PM 42.4406 -77.6064 84° East 500 575 37,000 -660 Level Cleveland Center
11:19PM 42.4719 -77.1894 84° East 466 536 35,000 -660 Descending Boston Center
11:20PM 42.4858 -77.0019 84° East 487 560 35,000  Level Boston Center
11:21PM 42.4997 -76.8114 84° East 498 573 35,000  Level Boston Center
11:22PM 42.5111 -76.6147 85° East 508 585 35,000  Level Boston Center
11:23PM 42.5264 -76.4214 84° East 513 590 35,000 -780 Level Boston Center
11:24PM 42.5250 -76.2239 90° East 513 590 33,500 -1,740 Descending Boston Center
11:25PM 42.5208 -76.0264 92° East 513 590 31,600 -1,920 Descending Boston Center
11:26PM 42.5144 -75.8344 93° East 518 596 29,700 -1,980 Descending Boston Center
11:27PM 42.5094 -75.6428 92° East 518 596 27,700 -2,040 Descending Boston Center
11:28PM 42.5042 -75.4564 92° East 513 590 25,700 -1,980 Descending Boston Center
11:29PM 42.4986 -75.2675 92° East 502 578 23,800 -2,040 Descending Boston Center
11:30PM 42.4947 -75.0869 92° East 490 564 21,700 -2,100 Descending Boston Center
11:31PM 42.4861 -74.9094 94° East 478 550 19,700 -1,380 Descending Boston Center
11:32PM 42.4814 -74.7344 92° East 473 544 19,000 -360 Descending Boston Center
11:33PM 42.4781 -74.5936 92° East 435 501 19,000  Level Boston Center
11:34PM 42.4811 -74.4192 89° East 420 483 19,000  Level Boston Center
11:35PM 42.4836 -74.2756 89° East 420 483 19,000 -60 Level Boston Center
11:36PM 42.4758 -74.0981 93° East 420 483 18,900 -960 Descending Boston Center
11:37PM 42.4447 -73.9453 105° East 420 483 17,100 -1,680 Descending Boston Center
11:38PM 42.4172 -73.8039 105° East 416 479 15,700 -1,560 Descending Boston Center
11:39PM 42.3956 -73.7053 107° East 404 465 14,600 -1,500 Descending Boston Center
11:39PM 42.3856 -73.6572 106° East 396 456 14,100 -1,500 Descending Boston Center
11:40PM 42.3636 -73.5669 108° East 389 448 13,100 -1,440 Descending Boston Center
11:40PM 42.3578 -73.5161 99° East 390 449 12,700 -1,560 Descending Boston Center
11:41PM 42.3417 -73.4400 106° East 378 435 11,700 -1,200 Descending Boston Center
11:41PM 42.3278 -73.3808 108° East 383 441 11,500 -720 Descending Boston Center
11:42PM 42.3117 -73.3075 107° East 372 428 11,000 -540 Descending Boston Center
11:42PM 42.3036 -73.2486 100° East 372 428 11,000 -120 Level Boston Center
11:43PM 42.2833 -73.1753 110° East 367 422 10,900 -900 Descending Boston Center
11:43PM 42.2775 -73.1247 99° East 354 407 10,100 -1,920 Descending Boston Center
11:44PM 42.2569 -73.0572 112° Southeast 331 381 9,000 -1,620 Descending Boston Center
11:44PM 42.2511 -73.0067 99° East 334 384 8,500 -1,800 Descending Boston Center
11:45PM 42.2367 -72.9419 107° East 323 372 7,200 -1,920 Descending Boston Center
11:45PM 42.2306 -72.9000 101° East 322 371 6,600 -1,800 Descending Boston Center
11:46PM 42.2122 -72.8242 108° East 318 366 5,400 -1,920 Descending Boston Center
11:46PM 42.2039 -72.7764 103° East 322 371 4,700 -1,560 Descending Boston Center
11:47PM 42.1833 -72.6978 109° East 303 349 3,700 -1,320 Descending Boston Center
11:47PM 42.1792 -72.6697 101° East 311 358 3,400 -720 Descending Boston Center
11:48PM 42.1606 -72.5997 110° East 262 302 3,000 -420 Descending Boston Center
11:48PM 42.1606 -72.5858 90° East 280 322 3,000  Level Boston Center
11:49PM 42.1294 -72.5183 122° Southeast 239 275 3,000  Level Boston Center
11:49PM 42.1211 -72.5017 124° Southeast 247 284 3,000 -660 Level Boston Center
11:50PM 42.0772 -72.4989 177° South 189 217 2,300 -540 Descending Boston Center
11:51PM 42.0439 -72.5464 227° Southwest 173 199 2,100 -240 Descending Boston Center
11:52PM 42.0147 -72.5853 225° Southwest 149 171 1,900 -540 Descending Boston Center
11:53PM 41.9875 -72.6217 225° Southwest 134 154 1,100 -660 Descending Boston Center
11:54PM 41.9625 -72.6550 225° Southwest 135 155 600 -540 Descending Boston Center
11:56PM 41.9333 -72.6833 228° Southwest  Level FlightAware Approximate
12:03AM 41.9392 -72.6834 228° Southwest  Level Estimated
12:04AM 41.9333 -72.6833 228° Southwest  Level FlightAware Approximate